CW8371 Weather Reports


Display with metric or nautical units.
time (UTC)temp
F
wind
direction
speed
MPH
gust
MPH
rain 1hr
in
rain 24hr
in
rain mn
in
humidity
%
barometer
mb
20190420001503 70 181 7.0 14.0 0.00 0.01 0.01 77 1007.9
20190420001003 70 187 6.0 19.0 0.00 0.01 0.01 78 1007.9
20190420000503 70 195 7.0 19.0 0.00 0.01 0.01 77 1007.9
20190420000004 70 185 8.0 16.0 0.00 0.01 0.01 77 1007.5
20190419235503 70 183 7.0 21.0 0.00 0.01 0.01 77 1007.4
20190419235003 70 185 7.0 21.0 0.00 0.01 0.01 77 1007.4
20190419234503 70 184 9.0 23.0 0.00 0.01 0.01 76 1007.5
20190419234003 70 184 9.0 23.0 0.00 0.02 0.01 76 1007.3
20190419233503 70 178 9.0 19.0 0.00 0.02 0.01 76 1007.3
20190419233003 70 177 10.0 26.0 0.00 0.02 0.01 75 1007.1
20190419232503 70 179 10.0 26.0 0.00 0.02 0.01 75 1007.0
20190419232003 71 179 9.0 24.0 0.00 0.02 0.01 75 1007.1
20190419231503 71 178 8.0 24.0 0.00 0.02 0.01 75 1007.0
20190419231003 71 174 10.0 23.0 0.00 0.02 0.01 74 1007.0
20190419230503 71 172 10.0 23.0 0.00 0.02 0.01 74 1006.9
20190419230003 71 177 8.0 18.0 0.00 0.02 0.01 74 1006.9
20190419225503 71 180 11.0 24.0 0.00 0.02 0.01 73 1007.0
20190419225003 71 181 11.0 24.0 0.00 0.02 0.01 73 1007.0
20190419224503 71 185 9.0 20.0 0.00 0.02 0.01 73 1007.0
20190419224003 72 183 9.0 28.0 0.00 0.02 0.01 72 1007.0
20190419223503 72 185 9.0 28.0 0.00 0.02 0.01 72 1007.0
20190419223003 72 183 10.0 23.0 0.00 0.02 0.01 71 1006.7
20190419222503 72 183 12.0 28.0 0.00 0.02 0.01 71 1006.7
20190419222003 72 184 12.0 28.0 0.00 0.02 0.01 70 1006.8
20190419221503 73 192 12.0 24.0 0.00 0.02 0.01 69 1006.7
20190419221003 73 196 12.0 24.0 0.00 0.02 0.01 69 1006.5
20190419220503 73 187 12.0 28.0 0.00 0.02 0.01 69 1006.5
20190419220004 73 183 12.0 28.0 0.00 0.02 0.01 68 1006.2
20190419215503 74 189 9.0 28.0 0.00 0.02 0.01 68 1006.3
20190419215003 74 192 10.0 21.0 0.00 0.02 0.01 68 1006.2
20190419214503 74 184 12.0 25.0 0.00 0.02 0.01 68 1006.0
20190419214003 74 183 12.0 28.0 0.00 0.02 0.01 68 1006.0
20190419213503 74 186 11.0 28.0 0.00 0.02 0.01 68 1006.1
20190419213003 74 189 10.0 25.0 0.00 0.02 0.01 67 1006.0
20190419212503 74 191 10.0 24.0 0.00 0.02 0.01 67 1005.8
20190419212003 74 189 9.0 24.0 0.00 0.02 0.01 67 1006.0
20190419211503 75 191 9.0 27.0 0.00 0.02 0.01 66 1006.2
20190419211003 75 189 9.0 27.0 0.00 0.02 0.01 66 1006.0
20190419210504 75 183 8.0 22.0 0.00 0.02 0.01 66 1005.9
20190419210004 75 184 10.0 22.0 0.00 0.02 0.01 66 1005.9
20190419205504 75 183 11.0 24.0 0.00 0.02 0.01 66 1005.8
20190419205004 75 181 10.0 24.0 0.00 0.02 0.01 66 1005.8
20190419204504 75 178 8.0 22.0 0.00 0.02 0.01 66 1005.9
20190419204004 75 174 9.0 23.0 0.00 0.02 0.01 66 1005.8
20190419203504 75 183 11.0 23.0 0.00 0.02 0.01 65 1005.7
20190419203004 75 188 11.0 22.0 0.00 0.02 0.01 65 1005.7
20190419202504 75 190 11.0 25.0 0.00 0.02 0.01 65 1005.7
20190419202002 76 191 11.0 25.0 0.00 0.02 0.01 64 1005.6
20190419201501 76 183 10.0 24.0 0.00 0.02 0.01 65 1005.6
20190419201002 76 178 11.0 24.0 0.00 0.02 0.01 64 1005.7
20190419200502 75 180 12.0 26.0 0.00 0.02 0.01 64 1005.4
20190419200002 76 183 11.0 26.0 0.00 0.02 0.01 64 1005.5
20190419195502 76 185 9.0 19.0 0.00 0.02 0.01 63 1005.4
20190419195002 76 183 8.0 17.0 0.00 0.02 0.01 63 1005.4
20190419194502 76 177 8.0 18.0 0.00 0.02 0.01 64 1005.6
20190419194002 77 187 9.0 18.0 0.00 0.02 0.01 63 1005.7
20190419193502 77 196 8.0 20.0 0.00 0.02 0.01 63 1005.5
20190419193003 77 199 10.0 25.0 0.00 0.02 0.01 63 1005.6
20190419192502 77 202 11.0 25.0 0.00 0.02 0.01 63 1005.6
20190419192002 77 201 11.0 24.0 0.00 0.02 0.01 61 1005.7
20190419191502 77 194 10.0 24.0 0.00 0.02 0.01 63 1005.5
20190419191002 76 188 11.0 26.0 0.00 0.02 0.01 64 1005.7
20190419190502 76 184 11.0 26.0 0.00 0.02 0.01 64 1005.8
20190419190002 75 177 10.0 21.0 0.00 0.02 0.01 65 1005.9
20190419185502 76 191 10.0 23.0 0.00 0.02 0.01 64 1005.9
20190419185003 76 193 8.0 23.0 0.00 0.02 0.01 63 1005.8
20190419184502 76 177 5.0 14.0 0.00 0.02 0.01 65 1005.8
20190419184002 75 176 6.0 16.0 0.00 0.02 0.01 66 1005.8
20190419183502 75 176 7.0 16.0 0.00 0.02 0.01 65 1005.8
20190419183002 75 178 7.0 14.0 0.00 0.02 0.01 65 1006.0
20190419182502 75 181 6.0 15.0 0.00 0.02 0.01 65 1006.0
20190419182002 75 195 7.0 16.0 0.00 0.02 0.01 65 1006.1
20190419181502 75 196 7.0 16.0 0.00 0.02 0.01 64 1006.1
20190419181002 75 192 7.0 14.0 0.00 0.02 0.01 64 1006.2
20190419180502 75 200 8.0 19.0 0.00 0.02 0.01 64 1006.2
20190419180002 75 198 6.0 19.0 0.00 0.02 0.01 65 1006.2
20190419175502 75 198 5.0 12.0 0.00 0.02 0.01 66 1006.3
20190419175002 74 208 5.0 12.0 0.00 0.02 0.01 66 1006.3
20190419174502 74 229 6.0 16.0 0.00 0.02 0.01 66 1006.5
20190419174002 74 239 8.0 23.0 0.00 0.02 0.01 65 1006.7
20190419173502 74 220 9.0 23.0 0.00 0.02 0.01 65 1006.8
20190419173002 74 207 8.0 19.0 0.00 0.02 0.01 66 1006.9
20190419172502 74 202 9.0 17.0 0.00 0.02 0.01 66 1006.9
20190419172002 74 210 9.0 20.0 0.00 0.02 0.01 68 1007.0
20190419171501 73 235 9.0 20.0 0.00 0.02 0.01 67 1007.1
20190419171002 73 226 10.0 25.0 0.00 0.02 0.01 67 1007.1
20190419170502 73 211 13.0 25.0 0.00 0.02 0.01 67 1007.0
20190419170002 73 210 12.0 24.0 0.00 0.02 0.01 67 1007.1
20190419165502 73 209 9.0 23.0 0.00 0.02 0.01 67 1007.1
20190419165002 73 203 9.0 22.0 0.00 0.02 0.01 69 1007.1
20190419164502 73 202 9.0 22.0 0.00 0.02 0.01 68 1007.0
20190419164002 73 226 7.0 16.0 0.00 0.02 0.01 69 1007.0
20190419163502 73 241 7.0 20.0 0.00 0.02 0.01 69 1007.0
20190419163002 72 241 6.0 20.0 0.00 0.02 0.01 71 1007.1
20190419162502 72 238 6.0 16.0 0.00 0.02 0.01 71 1007.0
20190419162002 72 233 7.0 18.0 0.00 0.02 0.01 71 1007.1
20190419161502 71 233 10.0 26.0 0.00 0.02 0.01 71 1007.3
20190419161002 72 231 9.0 26.0 0.00 0.02 0.01 70 1007.4
20190419160502 72 213 9.0 22.0 0.00 0.02 0.01 70 1007.4
20190419160002 72 199 10.0 22.0 0.00 0.02 0.01 71 1007.4
20190419155502 71 195 11.0 22.0 0.00 0.02 0.01 71 1007.5
20190419155002 71 202 12.0 28.0 0.00 0.02 0.01 70 1007.6
20190419154502 71 206 10.0 28.0 0.00 0.02 0.01 70 1007.5
20190419154002 71 202 10.0 20.0 0.00 0.02 0.01 70 1007.8
20190419153502 71 200 10.0 20.0 0.00 0.02 0.01 70 1007.6
20190419153002 71 203 9.0 23.0 0.00 0.02 0.01 70 1007.6
20190419152502 71 213 9.0 23.0 0.00 0.02 0.01 70 1007.6
20190419152002 71 210 10.0 22.0 0.00 0.02 0.01 69 1007.7
20190419151502 71 202 10.0 21.0 0.00 0.02 0.01 69 1007.6
20190419151002 71 206 9.0 21.0 0.00 0.02 0.01 69 1007.6
20190419150502 71 205 8.0 19.0 0.00 0.02 0.01 70 1007.5
20190419150002 70 198 6.0 17.0 0.00 0.02 0.01 72 1007.4
20190419145501 70 200 6.0 17.0 0.00 0.02 0.01 72 1007.3
20190419145002 70 202 6.0 21.0 0.00 0.02 0.01 72 1007.5
20190419144502 70 207 7.0 21.0 0.00 0.02 0.01 73 1007.5
20190419144002 70 202 9.0 20.0 0.00 0.02 0.01 73 1007.5
20190419143502 70 202 9.0 19.0 0.00 0.02 0.01 73 1007.4
20190419143002 69 191 9.0 17.0 0.00 0.02 0.01 74 1007.6
20190419142502 69 183 8.0 17.0 0.00 0.02 0.01 75 1007.5
20190419142002 69 195 6.0 16.0 0.01 0.02 0.01 76 1007.6
20190419141502 68 199 6.0 15.0 0.01 0.02 0.01 76 1007.6
20190419141002 68 200 6.0 16.0 0.01 0.02 0.01 77 1007.5
20190419140502 68 197 6.0 16.0 0.01 0.02 0.01 77 1007.5
20190419140002 68 201 5.0 11.0 0.01 0.02 0.01 78 1007.6
20190419135502 67 211 7.0 16.0 0.01 0.02 0.01 77 1007.7
20190419135002 67 205 8.0 21.0 0.01 0.02 0.01 78 1007.7
20190419134502 67 191 7.0 21.0 0.01 0.02 0.01 78 1007.7
20190419134002 67 184 7.0 18.0 0.01 0.02 0.01 78 1007.6
20190419133502 67 184 9.0 17.0 0.01 0.02 0.01 79 1007.5
20190419133002 67 189 10.0 21.0 0.01 0.02 0.01 79 1007.5
20190419132502 67 195 8.0 21.0 0.01 0.02 0.01 79 1007.5
20190419132002 67 202 6.0 15.0 0.00 0.01 0.00 81 1007.6
20190419131502 66 202 6.0 15.0 0.00 0.01 0.00 80 1007.4
20190419131002 66 193 7.0 16.0 0.00 0.01 0.00 81 1007.5
20190419130502 66 197 6.0 16.0 0.00 0.01 0.00 81 1007.5
20190419130002 66 201 5.0 13.0 0.00 0.01 0.00 82 1007.5
20190419125502 66 195 6.0 13.0 0.00 0.01 0.00 82 1007.6
20190419125002 66 190 5.0 11.0 0.00 0.01 0.00 82 1007.8
20190419124502 66 190 5.0 10.0 0.00 0.01 0.00 82 1007.9
20190419124002 65 193 5.0 16.0 0.00 0.01 0.00 82 1007.9
20190419123502 65 194 5.0 16.0 0.00 0.01 0.00 83 1008.0
20190419123003 65 181 6.0 15.0 0.00 0.01 0.00 83 1008.1
20190419122502 65 180 5.0 14.0 0.00 0.01 0.00 83 1008.1
20190419122002 65 191 6.0 15.0 0.00 0.01 0.00 84 1008.1
20190419121502 64 190 6.0 15.0 0.00 0.01 0.00 84 1008.2
20190419121002 64 192 5.0 14.0 0.00 0.01 0.00 85 1008.3
20190419120502 64 196 4.0 13.0 0.00 0.01 0.00 85 1008.1
20190419120002 64 190 6.0 14.0 0.00 0.01 0.00 85 1008.2
20190419115502 64 189 6.0 15.0 0.00 0.01 0.00 86 1008.3
20190419115002 63 189 5.0 15.0 0.00 0.01 0.00 86 1008.3
20190419114502 63 180 5.0 14.0 0.00 0.01 0.00 86 1008.1
20190419114002 63 173 5.0 14.0 0.00 0.01 0.00 87 1008.1
20190419113502 63 173 5.0 12.0 0.00 0.01 0.00 87 1007.8
20190419113001 63 175 6.0 12.0 0.00 0.01 0.00 87 1007.9
20190419112502 62 176 5.0 12.0 0.00 0.01 0.00 88 1008.0
20190419112002 62 175 5.0 15.0 0.00 0.01 0.00 88 1008.0
20190419111502 62 176 6.0 15.0 0.00 0.01 0.00 88 1008.1
20190419111002 62 180 4.0 10.0 0.00 0.01 0.00 89 1008.0
20190419110502 62 180 4.0 8.0 0.00 0.01 0.00 89 1008.0
20190419110002 61 181 4.0 9.0 0.00 0.01 0.00 90 1007.9
20190419105502 61 184 5.0 12.0 0.00 0.01 0.00 90 1008.0
20190419105002 61 187 5.0 12.0 0.00 0.01 0.00 91 1007.9
20190419104502 61 177 5.0 14.0 0.00 0.01 0.00 92 1007.9
20190419104002 60 175 5.0 16.0 0.00 0.01 0.00 94 1007.9
20190419103502 60 185 4.0 16.0 0.00 0.01 0.00 96 1008.0
20190419103002 60 184 4.0 10.0 0.00 0.01 0.00 98 1008.1
20190419102502 59 180 5.0 11.0 0.00 0.01 0.00 98 1008.0
20190419102003 59 185 4.0 11.0 0.00 0.01 0.00 99 1008.0
20190419101502 58 191 4.0 10.0 0.00 0.01 0.00 99 1007.9
20190419101002 58 188 4.0 10.0 0.00 0.01 0.00 99 1007.9
20190419100502 58 186 5.0 10.0 0.00 0.01 0.00 99 1007.8
20190419100002 58 186 4.0 12.0 0.00 0.01 0.00 99 1007.7
20190419095502 57 187 4.0 12.0 0.00 0.01 0.00 99 1007.6
20190419095002 56 189 4.0 12.0 0.00 0.01 0.00 98 1007.4
20190419094503 53 189 2.0 12.0 0.00 0.01 0.00 98 1007.5
20190419094002 49 177 2.0 7.0 0.00 0.01 0.00 98 1007.5
20190419093502 47 174 2.0 7.0 0.00 0.01 0.00 98 1007.5
20190419093003 44 171 1.0 7.0 0.00 0.01 0.00 97 1007.5
20190419092502 43 169 0.0 5.0 0.00 0.01 0.00 97 1007.6
20190419092003 42 0 0.0 0.0 0.00 0.01 0.00 97 1007.6
20190419091502 42 0 0.0 0.0 0.00 0.01 0.00 97 1007.6
20190419091002 42 0 0.0 0.0 0.00 0.01 0.00 97 1007.8
20190419090502 42 0 0.0 0.0 0.00 0.01 0.00 97 1007.8
20190419090002 42 0 0.0 0.0 0.00 0.01 0.00 97 1007.8
20190419085502 42 0 0.0 0.0 0.00 0.01 0.00 97 1007.8
20190419085003 42 0 0.0 0.0 0.00 0.01 0.00 97 1007.8
20190419084503 42 0 0.0 0.0 0.00 0.01 0.00 97 1007.9
20190419084003 43 167 0.0 1.0 0.00 0.01 0.00 97 1007.9
20190419083502 43 167 0.0 1.0 0.00 0.01 0.00 97 1007.9
20190419083002 43 167 0.0 1.0 0.00 0.01 0.00 97 1007.9
20190419082502 43 167 0.0 1.0 0.00 0.01 0.00 97 1007.8
20190419082002 42 0 0.0 0.0 0.00 0.01 0.00 97 1007.9
20190419081502 42 0 0.0 0.0 0.00 0.01 0.00 96 1007.9
20190419081002 42 0 0.0 0.0 0.00 0.01 0.00 96 1007.7
20190419080502 42 0 0.0 0.0 0.00 0.01 0.00 97 1007.8
20190419080002 42 0 0.0 0.0 0.00 0.01 0.00 97 1007.8
20190419075502 42 0 0.0 0.0 0.00 0.01 0.00 96 1007.8
20190419075002 42 0 0.0 0.0 0.00 0.01 0.00 96 1007.8
20190419074502 43 0 0.0 0.0 0.00 0.01 0.00 97 1007.8
20190419074002 43 0 0.0 0.0 0.00 0.01 0.00 97 1007.8
20190419073502 43 0 0.0 0.0 0.00 0.01 0.00 97 1007.9
20190419073002 43 0 0.0 0.0 0.00 0.01 0.00 97 1007.9
20190419072502 43 0 0.0 0.0 0.00 0.01 0.00 96 1007.9
20190419072002 43 0 0.0 0.0 0.00 0.01 0.00 96 1008.0
20190419071502 43 0 0.0 0.0 0.00 0.01 0.00 96 1007.9
20190419071002 43 0 0.0 0.0 0.00 0.01 0.00 96 1008.1
20190419070502 43 0 0.0 0.0 0.00 0.01 0.00 96 1008.3
20190419070002 43 0 0.0 0.0 0.00 0.01 0.00 96 1008.4
20190419065502 43 0 0.0 0.0 0.00 0.01 0.00 96 1008.5
20190419065002 44 0 0.0 0.0 0.00 0.01 0.00 96 1008.4
20190419064502 44 0 0.0 0.0 0.00 0.01 0.00 96 1008.6
20190419064002 44 0 0.0 0.0 0.00 0.01 0.00 96 1008.7
20190419063502 44 167 0.0 1.0 0.00 0.01 0.00 96 1008.8
20190419063002 44 167 0.0 1.0 0.00 0.01 0.00 96 1008.9
20190419062502 44 0 0.0 0.0 0.00 0.01 0.00 96 1009.0
20190419062003 44 0 0.0 0.0 0.00 0.01 0.00 96 1009.0
20190419061502 44 167 0.0 1.0 0.00 0.01 0.00 96 1009.2
20190419061003 44 167 0.0 1.0 0.00 0.01 0.00 96 1009.4
20190419060503 44 167 0.0 1.0 0.00 0.01 0.00 96 1009.4
20190419060003 44 0 0.0 0.0 0.00 0.01 0.00 96 1009.5
20190419055503 44 0 0.0 0.0 0.00 0.01 0.00 96 1009.5
20190419055003 45 0 0.0 0.0 0.00 0.01 0.00 96 1009.6
20190419054502 45 167 0.0 1.0 0.00 0.01 0.00 96 1009.7
20190419054003 45 167 0.0 1.0 0.00 0.01 0.00 96 1009.8
20190419053502 45 0 0.0 0.0 0.00 0.01 0.00 96 1010.0
20190419053002 45 0 0.0 0.0 0.00 0.01 0.00 96 1010.1
20190419052502 45 0 0.0 0.0 0.00 0.01 0.00 96 1010.5
20190419052003 45 167 0.0 4.0 0.00 0.01 0.00 96 1010.6
20190419051502 45 167 0.0 4.0 0.00 0.01 0.00 96 1010.7
20190419051002 45 0 0.0 0.0 0.00 0.01 0.00 96 1010.8
20190419050502 45 0 0.0 0.0 0.00 0.01 0.00 96 1010.8
20190419050002 45 0 0.0 0.0 0.00 0.01 0.00 96 1011.0
20190419045502 45 0 0.0 0.0 0.00 0.01 0.00 96 1011.1
20190419045002 45 0 0.0 0.0 0.00 0.01 0.00 96 1011.0
20190419044502 45 0 0.0 0.0 0.00 0.01 0.00 96 1011.0
20190419044002 45 0 0.0 0.0 0.00 0.01 0.00 96 1011.1
20190419043502 45 0 0.0 0.0 0.00 0.01 0.00 96 1011.2
20190419043002 45 0 0.0 0.0 0.00 0.01 0.00 96 1011.3
20190419042502 45 166 1.0 5.0 0.00 0.01 0.00 96 1011.4
20190419042003 45 166 1.0 5.0 0.00 0.01 0.00 96 1011.4
20190419041502 45 0 0.0 0.0 0.00 0.01 0.00 96 1011.3
20190419041002 45 0 0.0 0.0 0.00 0.01 0.00 96 1011.3
20190419040502 45 0 0.0 0.0 0.00 0.01 0.00 96 1011.5
20190419040002 45 0 0.0 0.0 0.00 0.01 0.00 96 1011.5
20190419035502 45 0 0.0 0.0 0.00 0.01 0.01 96 1011.5
20190419035002 45 0 0.0 0.0 0.00 0.01 0.01 96 1011.5
20190419034502 45 0 0.0 0.0 0.00 0.01 0.01 96 1011.5
20190419034002 45 0 0.0 0.0 0.00 0.01 0.01 96 1011.8
20190419033502 45 0 0.0 0.0 0.00 0.01 0.01 96 1011.8
20190419033003 45 0 0.0 0.0 0.00 0.01 0.01 96 1011.6
20190419032502 45 0 0.0 0.0 0.00 0.01 0.01 96 1011.6
20190419032002 45 0 0.0 0.0 0.00 0.01 0.01 96 1011.5
20190419031502 45 0 0.0 0.0 0.00 0.01 0.01 96 1011.5
20190419031003 45 0 0.0 0.0 0.00 0.01 0.01 96 1011.7
20190419030502 45 0 0.0 0.0 0.00 0.01 0.01 96 1012.0
20190419030003 45 0 0.0 0.0 0.00 0.01 0.01 96 1011.9
20190419025502 45 0 0.0 0.0 0.00 0.01 0.01 96 1011.9
20190419025002 45 0 0.0 0.0 0.00 0.01 0.01 96 1011.9
20190419024502 45 0 0.0 0.0 0.00 0.01 0.01 96 1012.0
20190419024002 45 0 0.0 0.0 0.00 0.01 0.01 95 1011.9
20190419023502 45 0 0.0 0.0 0.00 0.01 0.01 95 1012.2
20190419023002 45 0 0.0 0.0 0.00 0.01 0.01 95 1012.3
20190419022502 45 0 0.0 0.0 0.00 0.01 0.01 95 1012.6
20190419022002 45 0 0.0 0.0 0.00 0.01 0.01 95 1012.9
20190419021502 45 0 0.0 0.0 0.00 0.01 0.01 95 1012.9
20190419021003 45 0 0.0 0.0 0.00 0.01 0.01 95 1012.9
20190419020502 45 0 0.0 0.0 0.00 0.01 0.01 95 1013.1
20190419020002 45 0 0.0 0.0 0.00 0.01 0.01 95 1013.1
20190419015502 45 0 0.0 0.0 0.00 0.01 0.01 95 1013.3
20190419015002 45 0 0.0 0.0 0.00 0.01 0.01 95 1013.3
20190419014502 45 0 0.0 0.0 0.00 0.01 0.01 95 1013.3
20190419014003 45 0 0.0 0.0 0.00 0.01 0.01 95 1013.6
20190419013503 45 0 0.0 0.0 0.00 0.01 0.01 95 1013.5
20190419013002 45 0 0.0 0.0 0.00 0.01 0.01 95 1013.5
20190419012503 45 0 0.0 0.0 0.00 0.01 0.01 95 1013.5
20190419012003 45 0 0.0 0.0 0.00 0.01 0.01 95 1013.9
20190419011503 45 0 0.0 0.0 0.00 0.01 0.01 95 1014.0
20190419011003 45 0 0.0 0.0 0.00 0.01 0.01 95 1014.2
20190419010503 45 0 0.0 0.0 0.00 0.01 0.01 94 1014.4
20190419010003 45 0 0.0 0.0 0.00 0.01 0.01 94 1014.6
20190419005502 45 0 0.0 0.0 0.00 0.01 0.01 94 1014.6
20190419005002 45 0 0.0 0.0 0.00 0.01 0.01 94 1014.5
20190419004502 45 0 0.0 0.0 0.00 0.01 0.01 94 1014.5
20190419004002 45 0 0.0 0.0 0.01 0.01 0.01 94 1014.4
20190419003502 45 0 0.0 0.0 0.01 0.01 0.01 94 1014.5
20190419003002 45 0 0.0 0.0 0.01 0.01 0.01 94 1014.5
20190419002502 45 0 0.0 0.0 0.01 0.01 0.01 94 1014.5
20190419002002 45 0 0.0 0.0 0.01 0.01 0.01 93 1014.7